FENGYUN 1C DEB

Satellite information

Favourite Embed

Satellite Type and Status

DEBRISIN ORBIT

Key statistics

Satellite FENGYUN 1C DEB at a glance.

Uptime

9665

Days in orbit

Revolutions

≈ 14.6

Per day

Orbit

SSO

Sun Synchronous Orbit

Inclination

98.6

Latest

Satellite identification and parameters

Extended collection of information and parameters for FENGYUN 1C DEB.

Object identification

Identified? True

Debris? True

Object name: FENGYUN 1C DEB

International designator: 1999-025CTP

Object number (NORAD): 32169

Object ID (CCSDS): 32169

Country: PEOPLES REPUBLIC OF CHINA (PRC)

Current information (Y/N): Y

RCS size: SMALL

Orbital parameters

Period: 98.355 minutes

Inclination: 98.5604 deg

SMA: 7058.134 km

Apoapsis: 708.117 km

Periapsis: 651.881 km

RAAN: 122.5316 deg

Eccentricy: 0.00398381

Argument of periapsis: 280.9093 deg

Mean anomaly: 78.7626 deg

Mean motion: 14.64090475 rev/day

Mean motion (dot): 0.0002987 rev/day2

B* drag term: 0.0056101559 1/REarth

Two-line elements (TLE)

Creation date: Oct. 23, 2025, 6:40 p.m.

Reference frame: TEME

Reference center: EARTH

Epoch: Oct. 22, 2025, 11:53 p.m. UTC

TLE line 0: 0 FENGYUN 1C DEB

TLE line 1: 1 32169U 99025CTP 25295.99563663 .00029870 00000-0 56102-2 0 9998

TLE line 2: 2 32169 98.5604 122.5316 0039838 280.9093 78.7626 14.64090475958757

Live tracking on map

Real-time ground track for satellite FENGYUN 1C DEB.

In-orbit conjunctions

A list of the most updated potential collisions computed for object FENGYUN 1C DEB.

Target Orbit TCA Probability of collision Miss distance Type
CZ-2D DEB SSO 2025-01-04 11:04:59 0.0001564549 62.0 (m) DEBRIS
CZ-6A DEB LEO 2024-12-27 13:04:10 0.0001398087 274.0 (m) DEBRIS

Associated space launch

Chinese polar orbiting meteorological satellite

FENGYUN 1C DEB was lifted into orbit during the mission ‘Long March 4B | Feng Yun 1C’, on board a Long March 4B space rocket.

The launch took place on May 10, 1999, 1:33 a.m. from Launch Complex 7.

For more information about the launch, click the button.

Launch to space Long March 4B | Feng Yun 1C
Long March 4B | Feng Yun 1C

Agency: N/A

Status: Launch Successful

Launch date: May 10, 1999, 1:33 a.m. UTC

Rocket: Long March 4B

Launch pad: Launch Complex 7

Location: Taiyuan Satellite Launch Center, People's Republic of China

...

Latest news about this satellite

There are no fresh news available about this satellite. Check back as we update our databases every day.


Newsletter sign-up

Weekly statistics, charts and insights to help you stay on top of the space industry.